Date String (YYYY-MM-DD hh:mm:ss) UTC,Instrument flags,Ambient pressure (hPa),Sample flow (lpm),Bypass flow (lpm),Sample temperature (°C),Ambient temperature (°C),ASC tube jacket temperature (°C),LED temperature (°C),Box temperature (°C),Sample RH (%),Span deviation,Mass concentration (μg/m³),Mass concentration (μg/m³),Mass concentration (μg/m³)
DateTimeUTC,F1_M11,P_M11,Q1_M11,Q2_M11,T1_M11,T2_M11,T3_M11,T4_M11,T5_M11,U1_M11,ZSPAN_M11,X0_M11,X2_M11,X1_M11
2021-09-11 01:00:00,,0827.7,5.01,0.00,28.7,25.4,00.0,37.8,30.1,12.1,0001.1,0032.95,0015.48,0013.63
2021-09-11 01:01:00,,0827.7,5.00,0.00,28.7,25.9,00.0,37.8,30.2,12.1,0000.3,0034.23,0015.60,0013.72
2021-09-11 01:02:00,,0827.8,5.01,0.00,28.7,26.4,00.0,37.8,30.3,12.1,0000.4,0034.40,0015.59,0013.76
2021-09-11 01:03:00,,0827.7,5.00,0.00,28.7,26.8,00.0,37.8,30.5,12.4,0001.0,0034.10,0015.60,0013.78
2021-09-11 01:04:00,,0827.7,4.99,0.00,28.8,27.2,00.0,37.8,30.6,12.1,0000.9,0033.94,0015.72,0013.86
2021-09-11 01:05:00,,0827.7,5.01,0.00,28.8,27.6,00.0,37.8,30.7,12.0,0000.8,0033.34,0015.76,0013.93
2021-09-11 01:06:00,,0827.7,5.00,0.00,28.9,27.9,00.0,37.8,30.9,12.3,0001.0,0032.55,0015.81,0013.95
2021-09-11 01:07:00,,0827.7,5.00,0.00,29.0,27.5,00.0,37.9,30.7,12.1,0000.8,0031.13,0015.86,0013.97
2021-09-11 01:08:00,,0827.7,4.99,0.00,28.8,25.7,00.0,37.8,30.3,12.2,0000.9,0029.80,0015.84,0013.94
2021-09-11 01:09:00,,0827.7,5.00,0.00,28.7,25.4,00.0,37.8,30.1,12.4,0001.0,0029.95,0015.84,0013.93
2021-09-11 01:10:00,,0827.8,5.00,0.00,28.7,25.8,00.0,37.8,30.2,11.9,0000.8,0029.59,0015.91,0013.97
2021-09-11 01:11:00,,0827.7,5.02,0.00,28.6,26.3,00.0,37.8,30.3,12.0,0000.8,0028.85,0015.90,0014.00
2021-09-11 01:12:00,,0827.7,4.99,0.00,28.7,26.8,00.0,37.8,30.4,12.3,0001.3,0027.90,0015.86,0013.99
2021-09-11 01:13:00,,0827.7,5.00,0.00,28.7,27.2,00.0,37.8,30.6,12.3,0001.6,0027.59,0015.95,0014.00
2021-09-11 01:14:00,,0827.7,5.01,0.00,28.8,27.5,00.0,37.8,30.7,12.3,0001.5,0028.16,0016.00,0014.02
2021-09-11 01:15:00,,0827.7,5.00,0.00,28.9,27.9,00.0,37.8,30.8,12.2,0001.8,0028.78,0016.03,0014.02
2021-09-11 01:16:00,,0827.7,5.01,0.00,29.0,28.1,00.0,37.8,30.9,12.2,0001.7,0028.66,0016.01,0013.98
2021-09-11 01:17:00,,0827.7,5.00,0.00,29.0,28.3,00.0,37.9,31.0,11.8,0001.7,0028.93,0016.03,0014.00
2021-09-11 01:18:00,,0827.7,5.01,0.00,29.0,27.2,00.0,37.9,30.7,11.9,0001.5,0029.47,0016.04,0014.05
2021-09-11 01:19:00,,0827.7,5.01,0.00,28.9,25.6,00.0,37.9,30.2,12.0,0001.0,0029.48,0016.09,0014.10
2021-09-11 01:20:00,,0827.7,5.01,0.00,28.8,25.7,00.0,37.9,30.2,12.2,0001.2,0031.02,0016.07,0014.13
2021-09-11 01:21:00,,0827.8,5.01,0.00,28.8,26.1,00.0,37.8,30.3,12.4,0001.2,0032.50,0016.06,0014.12
2021-09-11 01:22:00,,0827.7,5.00,0.00,28.8,26.6,00.0,37.8,30.5,12.9,0001.5,0032.36,0016.01,0014.08
2021-09-11 01:23:00,,0827.8,4.99,0.00,28.8,27.0,00.0,37.8,30.6,12.7,0000.8,0031.75,0015.96,0014.04
2021-09-11 01:24:00,,0827.9,5.00,0.00,28.9,27.4,00.0,37.8,30.7,12.8,0000.6,0031.17,0015.91,0014.02
2021-09-11 01:25:00,,0827.9,5.01,0.00,28.9,27.7,00.0,37.9,30.8,12.1,0000.4,0030.75,0015.88,0014.00
2021-09-11 01:26:00,,0827.9,4.99,0.00,29.0,28.0,00.0,37.9,30.9,11.9,-000.1,0030.46,0015.82,0013.96
2021-09-11 01:27:00,,0827.9,5.00,0.00,29.0,27.0,00.0,37.9,30.7,12.0,0000.1,0030.47,0015.77,0013.93
2021-09-11 01:28:00,,0827.9,5.01,0.00,28.8,25.4,00.0,37.9,30.1,12.2,-000.1,0030.57,0015.76,0013.92
2021-09-11 01:29:00,,0827.9,4.99,0.00,28.7,25.4,00.0,37.8,30.1,12.2,0000.2,0030.08,0015.75,0013.90
2021-09-11 01:30:00,,0827.9,5.01,0.00,28.7,25.8,00.0,37.8,30.3,12.3,0000.7,0030.56,0015.67,0013.86
2021-09-11 01:31:00,,0827.9,4.99,0.00,28.7,26.3,00.0,37.8,30.4,12.3,0000.6,0029.18,0015.63,0013.81
2021-09-11 01:32:00,,0827.9,5.01,0.00,28.7,26.8,00.0,37.8,30.5,12.1,0000.5,0027.65,0015.60,0013.77
2021-09-11 01:33:00,,0828.0,5.00,0.00,28.8,27.2,00.0,37.8,30.6,12.0,0000.2,0027.60,0015.65,0013.78
2021-09-11 01:34:00,,0827.8,5.00,0.00,28.8,27.6,00.0,37.8,30.7,11.9,0000.9,0026.95,0015.65,0013.79
2021-09-11 01:35:00,,0827.8,4.99,0.00,28.9,27.9,00.0,37.8,30.8,11.9,0000.5,0027.26,0015.60,0013.80
2021-09-11 01:36:00,,0827.8,5.00,0.00,29.0,28.1,00.0,37.9,30.9,11.8,0000.3,0027.07,0015.55,0013.83
2021-09-11 01:37:00,,0827.9,5.01,0.00,29.0,27.3,00.0,37.9,30.7,11.8,0000.6,0026.60,0015.57,0013.86
2021-09-11 01:38:00,,0827.8,4.99,0.00,28.8,25.5,00.0,37.9,30.2,11.9,0000.6,0027.93,0015.65,0013.91
2021-09-11 01:39:00,,0827.9,5.00,0.00,28.7,25.3,00.0,37.8,30.1,12.0,0001.0,0028.04,0015.66,0013.94
2021-09-11 01:40:00,,0827.9,5.00,0.00,28.6,25.7,00.0,37.8,30.2,12.2,0001.0,0028.17,0015.64,0013.94
2021-09-11 01:41:00,,0828.0,5.01,0.00,28.6,26.2,00.0,37.8,30.3,12.3,0000.7,0028.75,0015.71,0013.96
2021-09-11 01:42:00,,0827.9,4.99,0.00,28.7,26.7,00.0,37.8,30.4,12.2,0000.7,0028.81,0015.78,0013.99
2021-09-11 01:43:00,,0827.9,5.00,0.00,28.7,27.1,00.0,37.8,30.6,12.2,0000.6,0029.00,0015.85,0014.06
2021-09-11 01:44:00,,0828.0,5.01,0.00,28.8,27.5,00.0,37.8,30.7,12.2,0000.8,0029.76,0015.87,0014.11
2021-09-11 01:45:00,,0827.9,4.99,0.00,28.9,27.8,00.0,37.8,30.8,12.1,0000.5,0030.73,0015.98,0014.17
2021-09-11 01:46:00,,0828.0,5.00,0.00,28.9,28.0,00.0,37.8,30.9,12.2,0000.8,0030.37,0016.06,0014.24
2021-09-11 01:47:00,,0828.0,5.01,0.00,29.0,28.2,00.0,37.9,31.0,12.5,0001.0,0030.40,0016.29,0014.33
2021-09-11 01:48:00,,0828.1,5.00,0.00,29.0,27.7,00.0,37.9,30.8,12.4,0000.7,0030.29,0016.44,0014.39
2021-09-11 01:49:00,,0828.0,5.01,0.00,28.9,25.8,00.0,37.9,30.3,12.2,0000.9,0028.92,0016.43,0014.40
2021-09-11 01:50:00,,0828.0,5.01,0.00,28.7,25.2,00.0,37.8,30.1,12.2,0000.7,0029.96,0016.50,0014.44
2021-09-11 01:51:00,,0828.0,5.00,0.00,28.7,25.6,00.0,37.8,30.2,12.1,0000.8,0029.64,0016.52,0014.47
2021-09-11 01:52:00,,0828.0,4.99,0.00,28.7,26.1,00.0,37.8,30.3,12.2,0000.8,0028.66,0016.51,0014.50
2021-09-11 01:53:00,,0828.0,5.00,0.00,28.7,26.6,00.0,37.8,30.4,12.1,0000.7,0028.84,0016.56,0014.56
2021-09-11 01:54:00,,0828.0,5.01,0.00,28.7,27.0,00.0,37.8,30.6,12.0,0000.9,0028.74,0016.53,0014.54
2021-09-11 01:55:00,,0828.0,5.00,0.00,28.8,27.4,00.0,37.8,30.7,12.2,0000.9,0028.30,0016.49,0014.52
2021-09-11 01:56:00,,0828.0,5.00,0.00,28.9,27.7,00.0,37.8,30.8,12.3,0001.0,0027.70,0016.51,0014.53
2021-09-11 01:57:00,,0828.1,5.00,0.00,28.9,28.0,00.0,37.8,30.9,12.4,0001.1,0028.06,0016.51,0014.51
2021-09-11 01:58:00,,0828.0,4.99,0.00,29.0,28.2,00.0,37.9,31.0,12.6,0001.1,0028.04,0016.43,0014.47
2021-09-11 01:59:00,,0828.1,5.00,0.00,29.1,28.4,00.0,37.9,31.1,12.5,0001.4,0028.11,0016.37,0014.45
